Powrót do katalogu

CZ-6A DEB

AktywnySSO
NORAD 54296·DEBRIS·🇨🇳 China

Wystrzelony Nov 11, 2022 z Taiyuan Satellite Launch Center

Loading…

Następne Przeloty (najbliższe 24 godziny)

TLE

ŚwieżeSource: Space-Track

Epoka: Sep 14, 2026, 13:21 UTC

1 54296U 22151AP  26257.55625569  .00001104  00000-0  41626-3 0  9990
2 54296  98.7702 302.7136 0030578 125.9786 234.4240 14.33160538199837

Śledź CZ-6A DEB w czasie rzeczywistym z AllMySat

Download on the App Store